Location: �quirre
(50.4736°N, 2.2351°E)
Time: 21:48:31
(UTC+00:00)

Cosmos 1092 Rocket - Pass Details

Date: 07 August 2020
Orbit: 953 x 996 km, 82.9° (Epoch: 21 September)

Event Time Altitude Azimuth Distance (km) Brightness Sun altitude
Rises 00:36:14 0° 351° (N) 3,702 8.3 -22.6°
Reaches altitude 10° 00:38:49 10° 355° (N) 2,744 7.4 -22.6°
Maximum altitude 00:45:03 63° 76° (ENE) 1,085 4.3 -22.4°
Enters shadow 00:48:05 31° 147° (SSE) 1,633 4.8 -22.2°
